[[{"header":{"parameterUnit":"m.s-1","parameterCategory":1,"la1":30.2991,"la2":30.254,"lo1":-89.0895,"lo2":-89.0444,"dy":0.0017,"dx":0.0017,"nx":28,"ny":28,"refTime":"2024-02-03T03:00:00:Z","depth":0,"parameterNumber":2,"parameterNumberName":"U-component_of_WINDS"},"data":[0,0,0,0,0,0,0,0,0,0,0,0,0,0,0,0,0,0,0,0,0,0,0,0,0,0,0,0,0,0,0,0,0,0,0,0,0,0,0,0,0,0,0,0,0,0,0,0,0,0,0,0,0,0,0,0,0,0,3.648,3.6482,0,3.6668,3.6671,3.6673,3.6694,3.6692,3.669,3.6688,3.6888,3.6895,3.6902,0,0,0,0,0,0,0,0,0,0,0,0,0,3.6144,3.615,3.6479,3.6482,3.6484,3.6668,3.6671,3.6673,3.6694,3.6692,3.6689,3.6687,3.6885,3.6894,3.6902,0,0,0,0,0,0,0,0,0,0,0,0,0,3.6307,3.6152,3.6479,3.6516,3.6522,3.6668,3.6671,3.6674,3.6694,3.6691,3.6689,3.6686,3.6883,3.6893,3.6903,3.7027,0,0,3.6936,3.6941,0,0,0,0,0,0,0,0,3.6298,3.632,3.6509,3.6514,3.652,3.6654,3.6626,3.6793,3.6695,3.6629,3.6688,3.6684,3.6813,3.6829,3.6871,3.7036,3.7045,3.6937,3.6943,3.6948,3.6951,0,0,0,0,0,0,0,3.6287,3.6312,3.6554,3.6511,3.6519,3.6526,3.6546,3.6658,3.6735,3.6635,3.6636,3.6658,3.6816,3.6861,3.6876,3.7048,3.6937,3.6946,3.6953,3.6957,3.7327,3.7331,0,0,0,0,0,0,3.6268,3.6302,3.6548,3.656,3.64,3.6535,3.6557,3.6614,3.6734,3.6749,3.666,3.6658,3.6844,3.6863,3.6883,3.7038,3.6948,3.6958,3.6964,3.7324,3.7328,3.7332,0,0,0,0,0,0,3.626,3.6289,3.6541,3.6432,3.6464,3.6543,3.6608,3.662,3.6665,3.6753,3.6768,3.6692,3.6842,3.6868,3.6991,3.7045,3.6963,3.6973,3.732,3.7325,3.733,3.7346,0,0,0,0,0,0,3.625,3.6286,3.6332,3.6432,3.647,3.6644,3.6611,3.6625,3.6682,3.6681,3.6787,3.6801,3.6842,3.6975,3.7002,3.7058,3.6981,3.7316,3.7322,3.7328,3.7341,3.7351,3.736,0,0,0,0,0,3.6238,3.633,3.6334,3.6364,3.6529,3.6647,3.6668,3.6711,3.6686,3.6735,3.6792,3.6798,3.7034,3.6988,3.7018,3.7078,3.7312,3.732,3.7328,3.7337,3.7349,3.7359,0,0,0,0,0,0,3.6236,3.6344,3.635,3.6476,3.6552,3.665,3.6712,3.6723,3.6809,3.6804,3.6856,3.688,3.7002,3.7052,3.6998,3.7205,3.7171,3.7185,3.7168,3.718,3.7189,3.7175,3.699,0,0,0,0,0,3.625,3.6334,3.6425,3.6528,3.6565,3.6632,3.6685,3.6712,3.6793,3.6826,3.6892,3.6973,3.7065,3.7125,3.7215,3.7348,3.7373,3.7405,3.7414,3.7421,3.7433,3.751,3.7526,3.7357,3.7357,3.7357,0,0,3.628,3.6349,3.64,3.6529,3.6591,3.668,3.6659,3.6753,3.6821,3.6841,3.6961,3.7013,3.7107,3.7236,3.7296,3.7282,3.7485,3.7431,3.7436,3.7444,3.752,3.7535,3.755,3.7363,3.7362,3.7361,0,0,3.6381,3.644,3.6534,3.6596,3.6689,3.6733,3.6755,3.6852,3.6887,3.7008,3.7025,3.7108,3.7265,3.7332,3.7387,3.7514,3.7524,3.7542,3.7591,3.7665,3.7679,3.7691,3.7739,3.7755,3.7554,3.7554,3.7554,0,3.6407,3.6539,3.6581,3.6675,3.6733,3.6753,3.685,3.6909,3.7028,3.7068,3.705,3.7249,3.7314,3.746,3.7491,3.7534,3.7564,3.7531,3.7673,3.7685,3.7697,3.7744,3.7761,3.7555,3.7555,3.7555,3.7555,0,3.6569,3.666,3.6725,3.6837,3.6902,3.6997,3.7056,3.7117,3.7138,3.7185,3.731,3.7388,3.7495,3.7531,3.7554,3.7682,3.767,3.7662,3.7629,3.7714,3.7759,3.7777,3.7558,3.7557,3.7557,3.7556,0,0,3.6673,3.6807,3.6831,3.6883,3.6988,3.7061,3.7158,3.7261,3.7314,3.7395,3.748,3.7614,3.7607,3.7669,3.7699,3.7764,3.7863,3.7748,3.7751,3.7768,3.8012,3.8019,3.8039,3.787,3.7873,3.7876,3.8005,0,3.6787,3.6958,3.6999,3.7147,3.7234,3.7255,3.7341,3.7416,3.7462,3.7545,3.7598,3.7692,3.7675,3.7713,3.7778,3.7837,3.7913,3.7828,3.7952,3.7956,3.7929,3.8062,3.8069,3.8187,3.8022,3.8025,3.8028,0,3.6943,3.7027,3.7182,3.7278,3.7316,3.7391,3.749,3.7568,3.7655,3.7684,3.7754,3.7778,3.7883,3.7844,3.7991,3.7932,3.7986,3.8023,3.8029,3.8043,3.7998,3.8082,3.8225,3.8244,3.8055,3.8053,3.8051,0,3.7006,3.7158,3.7271,3.7315,3.7428,3.7481,3.7531,3.7615,3.7675,3.7762,3.7802,3.7901,3.7956,3.8033,3.8085,3.8051,3.8229,3.8193,3.8259,3.8258,3.8297,3.8294,3.8453,3.8328,3.8328,3.8327,3.8327,0,3.713,3.7226,3.7301,3.7371,3.748,3.7527,3.7634,3.7685,3.7759,3.7842,3.7866,3.7944,3.8006,3.8093,3.8134,3.8251,3.8275,3.8304,3.8315,3.8303,3.83,3.834,3.8334,3.8332,3.8331,3.833,3.8329,0,3.722,3.7274,3.7399,3.7496,3.7523,3.7598,3.7683,3.7753,3.78,3.7905,3.7932,3.8007,3.8111,3.8169,3.83,3.8328,3.8459,3.8464,3.8429,3.8434,3.8497,3.8491,3.8689,3.8719,3.8572,3.8573,3.8574,0,3.7296,3.7369,3.7474,3.753,3.758,3.767,3.7731,3.7782,3.7845,3.795,3.8008,3.8113,3.8199,3.8365,3.8433,3.8534,3.8543,3.8605,3.8558,3.8545,3.8547,3.8542,3.8551,3.8614,3.8615,3.8616,3.8617,0,3.7427,3.745,3.7535,3.7631,3.7703,3.7782,3.786,3.7905,3.7969,3.8039,3.8144,3.8211,3.8344,3.8449,3.8555,3.861,3.8626,3.8631,3.8652,3.8642,3.862,3.8635,3.8453,3.8627,3.8626,3.8625,3.8625,3.8624,3.7513,3.758,3.7665,3.776,3.7824,3.7896,3.7968,3.8023,3.8111,3.8222,3.8247,3.8359,3.8447,3.8591,3.8649,3.8739,3.8728,3.8757,3.8766,3.8773,3.8776,3.8604,3.8758,3.8758,3.8758,3.8758,3.8758,0,3.7647,3.7702,3.7789,3.7897,3.7973,3.7978,3.8065,3.8129,3.8226,3.8306,3.839,3.8512,3.8614,3.8691,3.8796,3.8853,3.8863,3.888,3.8877,3.889,3.8779,3.8751,3.887,3.887,3.887,3.887,3.887,3.887,3.7725,3.784,3.7873,3.8021,3.8076,3.8184,3.8234,3.8302,3.8366,3.8501,3.8585,3.8633,3.8712,3.8823,3.8919,3.8939,3.8977,3.8993,3.9014,3.8909,3.8897,3.8886,3.886,3.9,3.9,3.9118,3.9119,3.912]},{"header":{"parameterUnit":"m.s-1","parameterCategory":1,"la1":30.2991,"la2":30.254,"lo1":-89.0895,"lo2":-89.0444,"dy":0.0017,"dx":0.0017,"nx":28,"ny":28,"refTime":"2024-02-03T03:00:00:Z","depth":0,"parameterNumber":3,"parameterNumberName":"V-component_of_WINDS"},"data":[0,0,0,0,0,0,0,0,0,0,0,0,0,0,0,0,0,0,0,0,0,0,0,0,0,0,0,0,0,0,0,0,0,0,0,0,0,0,0,0,0,0,0,0,0,0,0,0,0,0,0,0,0,0,0,0,0,0,-1.9678,-1.9679,0,-1.9759,-1.976,-1.9761,-1.9811,-1.9811,-1.9811,-1.9811,-1.9893,-1.9894,-1.9896,0,0,0,0,0,0,0,0,0,0,0,0,0,-1.9566,-1.9568,-1.9678,-1.9679,-1.968,-1.9759,-1.976,-1.9761,-1.9811,-1.9811,-1.9811,-1.9811,-1.9892,-1.9894,-1.9896,0,0,0,0,0,0,0,0,0,0,0,0,0,-1.9628,-1.9569,-1.9678,-1.9714,-1.9719,-1.9759,-1.976,-1.9762,-1.981,-1.9811,-1.9811,-1.9812,-1.9891,-1.9894,-1.9897,-1.9907,0,0,-1.9906,-1.9907,0,0,0,0,0,0,0,0,-1.9624,-1.9632,-1.9708,-1.9712,-1.9717,-1.9775,-1.9751,-1.981,-1.981,-1.9776,-1.9811,-1.9812,-1.9853,-1.9859,-1.9873,-1.9911,-1.9914,-1.9906,-1.9908,-1.9909,-1.991,0,0,0,0,0,0,0,-1.962,-1.9629,-1.971,-1.9709,-1.9714,-1.9727,-1.9736,-1.9762,-1.9811,-1.9779,-1.9782,-1.9791,-1.9855,-1.987,-1.9876,-1.9915,-1.9906,-1.9908,-1.991,-1.9911,-1.9966,-1.9966,0,0,0,0,0,0,-1.961,-1.9625,-1.9708,-1.9713,-1.967,-1.9728,-1.9739,-1.9756,-1.9811,-1.982,-1.9791,-1.9793,-1.9865,-1.9872,-1.9879,-1.9895,-1.9909,-1.9912,-1.9913,-1.9967,-1.9966,-1.9966,0,0,0,0,0,0,-1.9607,-1.9617,-1.9705,-1.967,-1.9682,-1.973,-1.9749,-1.9757,-1.9773,-1.982,-1.9829,-1.9797,-1.9866,-1.9875,-1.99,-1.9898,-1.9913,-1.9915,-1.9967,-1.9966,-1.9966,-1.9927,0,0,0,0,0,0,-1.9604,-1.9616,-1.962,-1.967,-1.9684,-1.9724,-1.9749,-1.9759,-1.9778,-1.9782,-1.9829,-1.9837,-1.9867,-1.9895,-1.9903,-1.9903,-1.9918,-1.9967,-1.9967,-1.9966,-1.9928,-1.9925,-1.9922,0,0,0,0,0,-1.96,-1.9605,-1.962,-1.963,-1.969,-1.9724,-1.9732,-1.9767,-1.9777,-1.9782,-1.9813,-1.9835,-1.9897,-1.9898,-1.9906,-1.9907,-1.9967,-1.9967,-1.9966,-1.993,-1.9926,-1.9922,0,0,0,0,0,0,-1.9553,-1.9612,-1.9629,-1.9651,-1.9682,-1.9733,-1.974,-1.9762,-1.979,-1.9793,-1.9835,-1.9845,-1.9866,-1.9889,-1.9888,-1.992,-1.9935,-1.9936,-1.9904,-1.9901,-1.9898,-1.9892,-1.992,0,0,0,0,0,-1.9546,-1.9569,-1.9619,-1.9633,-1.9648,-1.9691,-1.9707,-1.9732,-1.9766,-1.9779,-1.9812,-1.9843,-1.987,-1.9887,-1.9914,-1.9932,-1.9943,-1.9937,-1.9934,-1.9931,-1.9931,-1.9943,-1.9941,-1.9964,-1.9964,-1.9964,0,0,-1.953,-1.9565,-1.9577,-1.9625,-1.9652,-1.9675,-1.9702,-1.9725,-1.9742,-1.9782,-1.9808,-1.9833,-1.9872,-1.9894,-1.9905,-1.9913,-1.9928,-1.993,-1.9928,-1.993,-1.9943,-1.994,-1.9938,-1.9963,-1.9964,-1.9964,0,0,-1.9513,-1.9542,-1.9557,-1.9584,-1.9625,-1.9654,-1.9658,-1.9705,-1.9724,-1.9751,-1.9782,-1.9803,-1.9848,-1.9874,-1.9893,-1.9888,-1.9909,-1.9895,-1.9879,-1.989,-1.9888,-1.9887,-1.9885,-1.9884,-1.9896,-1.9896,-1.9896,0,-1.9488,-1.9524,-1.9562,-1.9584,-1.9604,-1.9643,-1.9659,-1.9683,-1.973,-1.9743,-1.9753,-1.9811,-1.9839,-1.9868,-1.9867,-1.9881,-1.9887,-1.989,-1.9886,-1.9885,-1.9884,-1.9883,-1.9882,-1.9894,-1.9894,-1.9894,-1.9894,0,-1.9492,-1.9516,-1.9524,-1.957,-1.9591,-1.9609,-1.9651,-1.9667,-1.969,-1.9718,-1.9745,-1.9781,-1.9817,-1.9825,-1.9847,-1.9858,-1.9862,-1.9878,-1.9893,-1.9879,-1.9879,-1.9879,-1.9891,-1.9891,-1.9892,-1.9893,0,0,-1.9447,-1.9515,-1.9517,-1.9539,-1.9587,-1.9607,-1.9627,-1.9663,-1.9677,-1.9709,-1.9727,-1.9765,-1.978,-1.9802,-1.9828,-1.9838,-1.9831,-1.9853,-1.9854,-1.9848,-1.9846,-1.9833,-1.9832,-1.9846,-1.9847,-1.9847,-1.9842,0,-1.9438,-1.9477,-1.9512,-1.9538,-1.9562,-1.9599,-1.9617,-1.9649,-1.9676,-1.9699,-1.9729,-1.9755,-1.9773,-1.9787,-1.9798,-1.983,-1.9832,-1.9831,-1.9864,-1.9865,-1.9853,-1.9832,-1.9819,-1.9813,-1.9842,-1.9842,-1.9842,0,-1.9431,-1.9462,-1.9491,-1.9538,-1.9549,-1.9565,-1.9601,-1.9623,-1.966,-1.9679,-1.9704,-1.9731,-1.9755,-1.9768,-1.9802,-1.98,-1.9816,-1.9833,-1.9834,-1.9838,-1.9852,-1.9835,-1.9812,-1.9811,-1.9843,-1.9843,-1.9843,0,-1.9396,-1.9445,-1.9469,-1.9486,-1.9542,-1.9552,-1.9575,-1.9613,-1.9632,-1.9664,-1.9677,-1.971,-1.9728,-1.9754,-1.9789,-1.9796,-1.9819,-1.9835,-1.9835,-1.9834,-1.9838,-1.9837,-1.9816,-1.9848,-1.9848,-1.9848,-1.9848,0,-1.9381,-1.9397,-1.9454,-1.9468,-1.9487,-1.9528,-1.9546,-1.9573,-1.9607,-1.9627,-1.9661,-1.968,-1.9726,-1.975,-1.9778,-1.9801,-1.9809,-1.9825,-1.9832,-1.9822,-1.982,-1.9833,-1.9834,-1.9848,-1.9848,-1.9848,-1.9848,0,-1.9345,-1.9383,-1.9411,-1.9462,-1.9476,-1.9488,-1.9531,-1.9547,-1.9576,-1.9602,-1.961,-1.9655,-1.9686,-1.9724,-1.9766,-1.9785,-1.9805,-1.9816,-1.9793,-1.9797,-1.9795,-1.9795,-1.9782,-1.9782,-1.9813,-1.9813,-1.9812,0,-1.9333,-1.9346,-1.9399,-1.9415,-1.9438,-1.9464,-1.9484,-1.9525,-1.9545,-1.9589,-1.9599,-1.9632,-1.9661,-1.9707,-1.9744,-1.9777,-1.9789,-1.9782,-1.9794,-1.9783,-1.9789,-1.9788,-1.979,-1.9779,-1.9778,-1.9778,-1.9778,0,-1.9307,-1.9326,-1.9354,-1.9389,-1.9412,-1.9442,-1.9473,-1.9484,-1.9532,-1.9552,-1.9584,-1.9606,-1.965,-1.9682,-1.972,-1.9744,-1.9769,-1.9774,-1.9776,-1.9765,-1.9751,-1.9759,-1.9785,-1.9774,-1.9774,-1.9774,-1.9775,-1.9775,-1.9283,-1.9297,-1.9336,-1.9367,-1.9395,-1.9423,-1.944,-1.9472,-1.95,-1.9539,-1.9561,-1.9592,-1.963,-1.9683,-1.9707,-1.9732,-1.9741,-1.9743,-1.9744,-1.9744,-1.9741,-1.9747,-1.9739,-1.9739,-1.9739,-1.9739,-1.9739,0,-1.926,-1.9287,-1.9315,-1.9357,-1.9381,-1.9403,-1.9439,-1.9458,-1.9485,-1.9518,-1.9546,-1.9583,-1.9615,-1.9654,-1.9689,-1.9701,-1.9714,-1.9709,-1.9708,-1.9714,-1.973,-1.9726,-1.9699,-1.9699,-1.9699,-1.9699,-1.9699,-1.9699,-1.925,-1.9275,-1.9299,-1.9338,-1.9366,-1.9397,-1.9415,-1.9442,-1.9469,-1.9508,-1.9536,-1.9562,-1.9598,-1.9636,-1.9666,-1.9677,-1.9688,-1.968,-1.9694,-1.9709,-1.9713,-1.9716,-1.9712,-1.9682,-1.9682,-1.9676,-1.9676,-1.9676]}]]